Location: Amarillo Post Office Jordan Station
(35.1907°N, 101.9342°W)
Time: 13:41:09
(UTC+00:00)

CENTAUR R/B - Pass Details

Date: 24 January 2021
Orbit: 742 x 1446 km, 63.5° (Epoch: 02 March)

Event Time Altitude Azimuth Distance (km) Brightness Sun altitude
Rises 12:57:59 0° 220° (SW) 3,291 5.0 -11.2°
Reaches altitude 10° 13:00:17 10° 224° (SW) 2,425 4.3 -10.8°
Maximum altitude 13:05:48 62° 305° (NW) 1,025 2.4 -9.7°
Drops below altitude 10° 13:12:23 10° 26° (NNE) 2,867 5.1 -8.4°
Sets 13:15:19 0° 29° (NNE) 3,939 5.8 -7.8°
